Regional Weather Roundup
Issued by NWS

Home | Current Version | Previous Version | Text Only | Print | Product List | Glossary Off
Versions: 1 2 3 4 5 6 7 8 9 10 11 12 13 14 15 16 17 18 19 20 21 22 23 24 25 26 27 28 29 30 31 32 33 34 35 36 37 38 39 40 41 42 43 44 45 46 47 48 49 50

000
ASUS43 KMPX 221410
RWRMN
WEATHER ROUNDUP FOR MINNESOTA
NATIONAL WEATHER SERVICE TWIN CITIES/CHANHASSEN MN
900 AM CDT MON SEP 22 2014


NOTE: "FAIR" INDICATES FEW OR NO CLOUDS BELOW 12,000 FEET WITH NO
SIGNIFICANT WEATHER AND/OR OBSTRUCTIONS TO VISIBILITY. N/A MEANS
CURRENT SKY AND/OR WEATHER CONDITIONS ARE NOT AVAILABLE.

MNZ060>063-068>070-221500-
   Twin Cities Metro

CITY           SKY/WX    TMP DP  RH WIND       PRES   REMARKS
TWIN CITIES    SUNNY     53  50  89 SW5       30.28R
ST PAUL        SUNNY     52  51  97 NW5       30.28S
CRYSTAL        SUNNY     56  50  80 W3        30.26R
BLAINE         SUNNY     54  54 100 W3        30.26S
LAKEVILLE      SUNNY     54  50  87 W6        30.28R
EDEN PRAIRIE   SUNNY     50  49  96 SW3       30.27R
SOUTH ST PAUL  SUNNY     54  50  87 W5        30.27S
LAKE ELMO      FAIR      52  52 100 W3        30.27S
$$
MNZ001>005-007-008-013>017-022>024-027-028-221500-
   Northwest Minnesota

CITY           SKY/WX    TMP DP  RH WIND       PRES   REMARKS
BEMIDJI        SUNNY     52  48  87 SW8       30.18S
HALLOCK        SUNNY     52  48  87 MISG      30.11F
ROSEAU         SUNNY     54  48  82 SW8       30.12F
WARROAD        SUNNY     54  48  82 SW9       30.12S
THIEF RVR FALL SUNNY     52  48  87 S7        30.16S
CROOKSTON      SUNNY     50  48  93 S6        30.16F
FOSSTON        SUNNY     52  48  87 S8        30.18F
DETROIT LAKES  SUNNY     54  48  82 SW7       30.21S
MOORHEAD       SUNNY     52  50  93 S5        30.20F
PARK RAPIDS    SUNNY     52  49  89 SW6       30.20F
MAHNOMEN       FAIR      51  47  89 SW9       30.19S
$$
MNZ006-009>011-018-025>026-221500-
   North Central Minnesota

CITY           SKY/WX    TMP DP  RH WIND       PRES   REMARKS
BAUDETTE       SUNNY     53  48  83 SW8       30.12F
FLAG ISLAND    SUNNY     54  46  76 SW16      30.07F
INTL FALLS     SUNNY     49  48  97 W8        30.13F
WASKISH        SUNNY     52  52 100 CALM      30.15F
BIG FORK       SUNNY     52  50  93 SW6       30.17F
LONGVILLE      SUNNY     52  50  93 SW8       30.20S
GRAND RAPIDS   SUNNY     54  46  76 W9        30.19S
CRANE LAKE     SUNNY     48  46  93 CALM      30.15F
ORR            SUNNY     48  45  87 CALM      30.14S
COOK           SUNNY     50  46  87 SW7       30.16F
WALKER         FAIR      53  48  83 W6        30.19S
$$
MNZ012-019>021-037-221500-
   Northeast Minnesota

CITY           SKY/WX    TMP DP  RH WIND       PRES   REMARKS
DULUTH         SUNNY     54  47  77 W10       30.19S
ELY            SUNNY     48  46  93 W7        30.16S
HIBBING        SUNNY     48  45  89 CALM      30.19S
EVELETH        MOSUNNY   45  43  93 CALM      30.19S
DULUTH HARBOR  SUNNY     52  48  87 SW8       30.21R
TWO HARBORS    SUNNY     54  45  71 W3        30.16R
SILVER BAY     SUNNY     52  48  87 W5        30.15S
GRAND MARAIS     N/A     53  49  86 SW9       30.13S
G MARAIS ARPRT SUNNY     52  45  76 W5        30.13S
$$
MNZ029>031-032-039>041-046>048-054>057-064-221500-
   West Central Minnesota

CITY           SKY/WX    TMP DP  RH WIND       PRES   REMARKS
FERGUS FALLS   SUNNY     52  48  87 S5        30.23F
WHEATON        SUNNY     52  46  82 SW5       30.24S
MORRIS         SUNNY     52  48  87 S3        30.23S
ALEXANDRIA     SUNNY     53  49  86 SW7       30.25S
ELBOW LAKE     FAIR      51  49  92 S5        30.23S
WADENA         SUNNY     50  48  93 SW3       30.21F
GLENWOOD       SUNNY     54  52  94 SW7       30.25S
APPLETON       SUNNY     54  52  94 CALM      30.24F
BENSON         SUNNY     48  48 100 SW3       30.25S
ORTONVILLE     SUNNY     54  46  76 CALM      30.23F
MADISON        SUNNY     55  52  88 SW6       30.25S
WILLMAR        FAIR      50  48  93 SW5       30.27S
$$
MNZ033>034-036-042>043-049>051-058-059-221500-
   Central Minnesota

CITY           SKY/WX    TMP DP  RH WIND       PRES   REMARKS
ST CLOUD       SUNNY     54  49  83 SW8       30.25S
SAUK CENTRE    FAIR      52  49  92 SW5       30.25S
PAYNESVILLE    SUNNY     50  50 100 S3        30.26S
AITKIN         SUNNY     54  48  82 SW5       30.20F
PINE RIVER     SUNNY     48  48 100 CALM      30.24S
BRAINERD       SUNNY     48  47  96 SW6       30.23F
STAPLES        SUNNY     52  50  93 CALM      30.22S
LONG PRAIRIE   FAIR      50  48  93 S6        30.24F
LITTLE FALLS   SUNNY     46  46 100 CALM      30.24S
LITCHFIELD     SUNNY     55  54  94 W5        30.27S
BUFFALO        SUNNY     52  49  89 SW3       30.27S
MAPLE LAKE     SUNNY     53  52  97 SW5       30.27S
$$
MNZ037-044-045-052-053-221500-
   East Central Minnesota

CITY           SKY/WX    TMP DP  RH WIND       PRES   REMARKS
PRINCETON      SUNNY     50  48  93 SW2       30.26S
MORA           SUNNY     50  48  93 W5        30.25F
CAMBRIDGE      SUNNY     54  45  71 W3        30.24S
RUSH CITY      SUNNY     50  50  97 CALM      30.25S
MOOSE LAKE     SUNNY     50  48  93 CALM      30.21R
HINCKLEY       FAIR      50  50 100 SW3       30.24R
CLOQUET        SUNNY     52  46  82 W7        30.21R
MCGREGOR       SUNNY     50  50 100 W6        30.22S
$$
MNZ071>073-080-081-089-090-097-098-221500-
   Southwest Minnesota

CITY           SKY/WX    TMP DP  RH WIND       PRES   REMARKS
MONTEVIDEO     SUNNY     55  52  88 W6        30.26F
GRANITE FALLS  SUNNY     51  49  93 S5        30.28S
CANBY          SUNNY     57  49  75 SW8       30.27S
MARSHALL       SUNNY     55  46  71 SW10      30.26S
REDWOOD FALLS  SUNNY     52  48  86 SW5       30.27F
OLIVIA         SUNNY     52  50  93 SW5       30.26S
PIPESTONE      SUNNY     54  48  82 SW6       30.28S
WINDOM           N/A     54  48  82 SW3       30.30S
WORTHINGTON    SUNNY     55  48  76 SW6       30.31R
JACKSON        SUNNY     54  50  87 SW6       30.30S
TRACY          SUNNY     56  51  82 SW10      30.28S
SLAYTON        SUNNY     55  50  84 CALM      30.30S
$$
MNZ065>067-074>077-082>085-091>093-221500-
   South Central Minnesota

CITY           SKY/WX    TMP DP  RH WIND       PRES   REMARKS
MANKATO        SUNNY     52  46  82 SW3       30.29S
NEW ULM        SUNNY     50  50 100 SW3       30.28S
ST JAMES       SUNNY     54  50  87 SW5       30.30S
FAIRMONT       SUNNY     54  46  76 W3        30.30S
GLENCOE        SUNNY     52  48  87 SW5       30.27S
FARIBAULT      SUNNY     55  50  82 SW5       30.29R
OWATONNA       SUNNY     50  48  93 W3        30.29S
WASECA         FOG       45  43  93 CALM      30.31S VSB 3/4
ALBERT LEA     SUNNY     52  50  93 W6        30.30S
$$
MNZ078>079-086>088-094>096-221500-
   Southeast Minnesota

CITY           SKY/WX    TMP DP  RH WIND       PRES   REMARKS
ROCHESTER      SUNNY     54  50  86 SW7       30.29R
RED WING       PTSUNNY   50  48  93 NW3       30.26S FOG
STANTON        SUNNY     51  49  93 CALM      30.27S
DODGE CENTER   MOSUNNY   50  48  93 W8        30.28S
WINONA         SUNNY     50  48  93 CALM      30.27S
AUSTIN         SUNNY     52  50  93 W6        30.29R
PRESTON        SUNNY     53  52  99 CALM      30.29R
$$
ABBREVIATIONS USED IN REMARKS
   TC - TEMPERATURES IN CELSIUS
  WCI - WIND CHILL INDEX
   HX - HEAT INDEX
  VSB - VISIBILITY
$$


USA.gov is the U.S. government's official web portal to all federal, state and local government web resources and services.